This is the latest recevied weather packets stored in our database for station/object N0THY. If no packets are shown the sender has not sent any weather packets the latest 10 day(s).
| Time | Temp. | Humidity | Pressure | Rain* | Wind** | Luminosity | Snow |
|---|---|---|---|---|---|---|---|
| 1777720492 | 1.67° C | 64% | 1022.2 hPa | 0 mm | - | - | - |
| 1777719589 | 1.67° C | 63% | 1022 hPa | 0 mm | - | - | - |
| 1777718686 | 1.67° C | 64% | 1022.1 hPa | 0 mm | - | - | - |
| 1777717783 | 1.67° C | 64% | 1022 hPa | 0 mm | - | - | - |
| 1777716880 | 1.67° C | 63% | 1021.9 hPa | 0 mm | - | - | - |
| 1777715977 | 1.67° C | 64% | 1021.9 hPa | 0 mm | - | - | - |
| 1777715074 | 1.67° C | 64% | 1021.6 hPa | 0 mm | - | - | - |
| 1777714171 | 1.67° C | 63% | 1021.6 hPa | 0 mm | - | - | - |
| 1777713268 | 1.67° C | 63% | 1021.6 hPa | 0 mm | - | - | - |
| 1777712365 | 1.67° C | 63% | 1021.5 hPa | 0 mm | - | - | - |
| 1777711462 | 2.22° C | 62% | 1021.5 hPa | 0 mm | - | - | - |
| 1777710559 | 2.78° C | 61% | 1021.4 hPa | 0 mm | - | - | - |
| 1777709656 | 3.33° C | 58% | 1021.3 hPa | 0 mm | - | - | - |
| 1777708753 | 3.89° C | 56% | 1021.2 hPa | 0 mm | - | - | - |
| 1777706948 | 4.44° C | 55% | 1021.1 hPa | 0 mm | - | - | - |
| 1777706045 | 5° C | 52% | 1020.8 hPa | 0 mm | - | - | - |
| 1777705142 | 5.56° C | 50% | 1020.8 hPa | 0 mm | - | - | - |
| 1777704239 | 5.56° C | 49% | 1020.8 hPa | 0 mm | - | - | - |
| 1777703336 | 6.11° C | 49% | 1020.6 hPa | 0 mm | - | - | - |
| 1777702433 | 6.11° C | 49% | 1020.5 hPa | 0 mm | - | - | - |
| 1777701530 | 6.67° C | 49% | 1020.4 hPa | 0 mm | - | - | - |
| 1777700627 | 7.22° C | 46% | 1020.3 hPa | 0 mm | - | - | - |
| 1777699724 | 8.33° C | 45% | 1020.2 hPa | 0 mm | - | - | - |
| 1777698821 | 7.78° C | 44% | 1020 hPa | 0 mm | - | - | - |
| 1777697918 | 7.78° C | 42% | 1019.8 hPa | 0 mm | - | - | - |
* Rain since midnight (hover to see other rain measurements)
** Current wind speed in m/s (hover to see current wind gust speed)